Total_Precipitation_Accumulation
0.03 0.05 0.08 0.12 0.14 0.16 0.19 0.24 0.26 0.28 0.28 0.34 0.42 0.57 0.81 0.96 1.15 1.15 1.19 1.33 1.47 1.77 1.96 2.30 2.66 2.95 3.44 3.44 3.32 3.40 3.56 3.77 3.88 4.15 4.24 4.47 4.81 5.05 5.17 5.17 5.04 5.02 4.91 5.03
0.06 0.08 0.08 0.12 0.12 0.14 0.20 0.32 0.35 0.32 0.29 0.37 0.53 0.69 0.88 1.02 1.12 1.08 1.18 1.36 1.50 1.93 2.30 2.46 2.67 3.08 3.53 3.67 3.66 3.68 3.86 4.18 4.40 4.66 5.12 5.40 5.65 5.91 6.08 6.07 5.63 5.43 5.31 5.21
0.07 0.08 0.06 0.09 0.10 0.12 0.15 0.23 0.28 0.30 0.29 0.39 0.60 0.88 1.03 1.13 1.27 1.44 1.64 1.80 1.91 2.15 2.51 2.57 2.65 3.01 3.34 3.52 3.61 3.73 3.98 4.43 4.97 5.40 5.88 6.25 6.37 6.40 6.26 5.98 5.84 5.69 5.52 5.36
0.06 0.05 0.05 0.08 0.11 0.13 0.16 0.17 0.25 0.25 0.32 0.43 0.56 1.01 1.34 1.43 1.55 1.83 2.02 2.01 2.11 2.27 2.46 2.55 2.69 2.95 3.24 3.46 3.60 3.93 4.45 5.10 5.65 6.11 6.68 7.16 7.22 7.00 6.69 6.23 5.81 5.57 5.31 4.99
0.07 0.07 0.08 0.09 0.11 0.14 0.15 0.13 0.21 0.24 0.28 0.39 0.55 0.94 1.73 1.84 1.88 2.10 2.29 2.07 2.05 2.05 2.12 2.36 2.52 2.71 3.10 3.31 3.53 3.90 4.49 5.20 5.89 6.68 7.36 7.79 7.67 7.30 6.86 6.17 5.60 5.14 4.75 4.40
0.08 0.07 0.07 0.08 0.09 0.12 0.12 0.13 0.18 0.24 0.30 0.47 0.47 0.81 1.57 2.00 2.14 2.23 2.14 1.97 1.93 1.84 1.85 1.99 2.14 2.39 2.71 3.02 3.30 3.72 4.37 5.10 5.72 6.32 6.82 7.04 6.92 6.71 6.18 5.49 4.87 4.46 4.14 3.80
0.11 0.10 0.09 0.07 0.07 0.11 0.12 0.17 0.41 0.57 0.63 0.64 0.50 0.81 1.50 1.81 1.93 1.85 1.79 1.84 1.72 1.77 1.74 1.75 1.85 2.06 2.41 2.60 2.98 3.44 3.88 4.51 4.90 5.20 5.59 5.76 5.78 5.55 5.24 4.76 4.29 3.85 3.35 3.01
0.24 0.19 0.12 0.08 0.07 0.12 0.13 0.16 0.46 0.73 0.72 0.72 0.70 1.13 1.66 1.69 1.64 1.55 1.50 1.54 1.58 1.62 1.64 1.65 1.79 1.97 2.25 2.39 2.59 2.80 3.09 3.45 3.61 3.64 3.87 4.13 4.16 4.09 3.95 3.65 3.32 3.03 2.67 2.30
0.35 0.25 0.13 0.08 0.07 0.09 0.12 0.14 0.21 0.43 0.51 0.84 1.11 1.53 1.95 1.80 1.73 1.65 1.61 1.47 1.42 1.41 1.46 1.58 1.69 1.72 1.79 1.88 1.98 2.07 2.25 2.41 2.49 2.57 2.64 2.78 2.80 2.79 2.71 2.51 2.26 2.07 1.93 1.70
0.33 0.28 0.14 0.08 0.07 0.09 0.11 0.17 0.26 0.46 0.82 1.08 1.35 1.92 2.47 2.35 1.99 1.70 1.51 1.31 1.22 1.26 1.34 1.44 1.53 1.55 1.57 1.58 1.67 1.74 1.81 1.87 1.90 1.97 1.95 1.92 1.94 1.95 1.92 1.76 1.68 1.58 1.46 1.37
0.29 0.33 0.20 0.13 0.16 0.18 0.19 0.24 0.34 0.50 0.62 1.00 1.51 2.25 2.38 2.55 2.43 1.96 1.62 1.46 1.35 1.28 1.25 1.32 1.33 1.33 1.34 1.36 1.43 1.50 1.50 1.49 1.50 1.50 1.48 1.45 1.41 1.42 1.48 1.47 1.39 1.32 1.24 1.14
0.30 0.41 0.38 0.25 0.19 0.18 0.20 0.26 0.37 0.71 0.77 0.77 1.40 2.43 2.34 2.58 2.64 2.33 2.01 1.83 1.72 1.43 1.32 1.32 1.26 1.21 1.15 1.17 1.21 1.27 1.28 1.27 1.31 1.24 1.15 1.17 1.15 1.16 1.20 1.22 1.11 1.06 1.05 0.98
0.30 0.49 0.81 0.79 0.58 0.34 0.26 0.28 0.33 0.44 0.65 0.84 1.45 2.57 2.63 2.46 2.49 2.43 2.15 2.04 2.09 1.91 1.68 1.55 1.36 1.27 1.21 1.17 1.12 1.06 1.08 1.08 1.10 1.07 1.03 1.02 1.03 1.04 1.05 1.05 1.02 0.96 0.94 0.91
0.25 0.50 1.03 1.35 0.99 0.60 0.43 0.33 0.33 0.42 0.76 0.95 1.33 2.03 2.37 2.39 2.45 2.49 2.53 2.49 2.49 2.20 1.88 1.68 1.44 1.35 1.32 1.22 1.13 1.06 1.08 1.01 0.95 0.95 0.93 0.94 0.95 0.97 0.97 1.00 1.05 1.01 0.90 0.82
0.37 0.75 0.75 0.64 0.56 0.51 0.43 0.41 0.40 0.41 0.53 0.88 1.28 1.69 2.11 2.25 2.39 2.64 2.78 2.67 2.42 2.05 1.81 1.72 1.60 1.51 1.44 1.33 1.26 1.14 1.07 0.97 0.93 0.89 0.88 0.86 0.82 0.81 0.82 0.89 0.93 0.94 0.88 0.77
0.42 0.72 0.70 0.61 0.48 0.53 0.52 0.54 0.57 0.54 0.61 0.89 1.30 1.92 2.23 2.43 2.55 2.56 2.52 2.53 2.50 2.16 1.92 1.83 1.73 1.63 1.58 1.46 1.40 1.31 1.20 1.13 1.03 0.96 0.95 0.90 0.85 0.79 0.79 0.78 0.81 0.80 0.74 0.69
0.42 0.68 0.96 0.89 0.56 0.74 1.07 0.88 0.74 0.77 0.80 1.00 1.38 1.75 1.91 2.06 2.19 2.40 2.52 2.45 2.44 2.23 2.00 1.88 1.87 1.85 1.78 1.72 1.61 1.46 1.30 1.21 1.02 0.91 0.88 0.87 0.83 0.78 0.74 0.69 0.67 0.69 0.73 0.69
0.36 0.67 0.89 0.89 1.02 1.49 1.24 0.78 0.70 0.83 0.89 0.90 1.08 1.21 1.44 1.63 1.83 2.08 2.30 2.41 2.44 2.30 2.17 2.05 1.94 1.89 1.81 1.72 1.60 1.41 1.22 1.06 0.89 0.82 0.80 0.76 0.71 0.71 0.72 0.67 0.65 0.66 0.69 0.67
0.26 0.57 0.90 1.01 1.31 1.46 1.21 0.76 0.68 0.97 1.17 0.90 0.94 0.97 1.00 1.12 1.40 1.87 1.99 2.04 2.14 2.17 2.15 2.04 1.91 1.84 1.74 1.54 1.37 1.26 1.06 0.94 0.87 0.79 0.77 0.69 0.62 0.66 0.68 0.66 0.65 0.68 0.65 0.64
0.30 0.51 0.88 1.08 1.46 1.73 1.48 0.68 0.46 0.80 1.58 1.12 1.00 1.05 1.03 1.21 1.53 1.57 1.48 1.53 1.66 1.78 1.87 1.83 1.67 1.55 1.51 1.33 1.15 1.09 0.97 0.87 0.83 0.77 0.73 0.66 0.64 0.66 0.69 0.71 0.69 0.63 0.63 0.60
0.65 0.78 1.01 1.18 1.49 1.54 0.84 0.51 0.65 1.45 1.79 1.25 1.03 1.10 1.26 1.48 1.45 1.12 0.97 1.15 1.32 1.42 1.56 1.56 1.47 1.41 1.27 1.10 1.06 1.10 1.05 0.92 0.75 0.65 0.64 0.66 0.67 0.63 0.60 0.62 0.64 0.61 0.56 0.57
0.82 1.01 1.15 1.26 1.61 1.61 0.70 0.62 1.09 1.29 1.00 0.90 0.91 0.94 0.97 0.98 0.88 0.80 0.80 0.94 1.04 1.15 1.25 1.33 1.39 1.31 1.19 1.08 1.07 1.08 1.04 0.85 0.73 0.70 0.70 0.66 0.62 0.51 0.48 0.57 0.61 0.56 0.55 0.59
0.75 0.93 1.05 1.22 1.45 1.11 0.63 0.61 0.66 0.66 0.76 0.78 0.83 0.82 0.72 0.72 0.74 0.71 0.76 0.90 1.00 1.03 1.05 1.11 1.18 1.17 1.11 1.04 1.04 1.04 0.92 0.74 0.70 0.74 0.69 0.63 0.55 0.48 0.47 0.52 0.54 0.52 0.52 0.49
0.75 0.61 0.69 0.84 0.84 0.68 0.60 0.56 0.60 0.66 0.67 0.68 0.74 0.73 0.67 0.61 0.62 0.64 0.72 0.85 0.93 0.91 0.90 0.95 1.03 1.04 1.00 0.92 0.90 0.91 0.81 0.77 0.79 0.77 0.68 0.59 0.52 0.46 0.42 0.42 0.40 0.40 0.41 0.41
0.71 0.61 0.73 0.87 0.86 0.78 0.72 0.64 0.63 0.68 0.71 0.67 0.70 0.72 0.64 0.56 0.58 0.61 0.71 0.74 0.79 0.83 0.84 0.87 0.96 0.96 0.85 0.77 0.73 0.70 0.74 0.80 0.83 0.76 0.63 0.55 0.47 0.40 0.38 0.32 0.26 0.24 0.26 0.26
0.57 0.64 0.76 0.93 0.86 0.89 0.82 0.62 0.59 0.75 0.87 0.81 0.77 0.71 0.62 0.56 0.57 0.57 0.63 0.65 0.66 0.71 0.75 0.81 0.81 0.77 0.69 0.63 0.62 0.58 0.63 0.69 0.68 0.63 0.56 0.48 0.42 0.38 0.30 0.28 0.24 0.17 0.16 0.17